This demonstration page uses our WeatherBlox Daily Observations layout. Learn more.

Left ArrowRight Arrow

41.55636, -103.73856

Hourly Observations for February 10, 2018

Temp ( °F °C ) Dew Point ( °F °C ) Humidity (%) Winds ( mph kmh ) Pressure ( in mb ) Visibility ( mi km ) Precip ( " mm )
12:53 am 00:53 Mostly Cloudy 4 -15.6 N/A 83 83 ESE 6 9 30.35 1028 10 16 N/A
1:53 am 01:53 Clear 2 -16.7 -1 -18.3 88 88 SE 3 6 30.33 1027 10 16 N/A
2:53 am 02:53 Clear 3 -16.1 -1 -18.3 83 83 ENE 5 7 30.31 1026 10 16 N/A
3:53 am 03:53 Cloudy 5 -15 1 -17.2 83 83 SSE 5 7 30.28 1025 10 16 N/A
4:53 am 04:53 Cloudy 5 -15 1 -17.2 83 83 SE 6 9 30.28 1026 10 16 N/A
5:53 am 05:53 Cloudy 5 -15 1 -17.2 83 83 ESE 5 7 30.26 1025 10 16 N/A
6:53 am 06:53 Cloudy 5 -15 1 -17.2 83 83 SSE 7 11 30.27 1025 10 16 N/A
7:53 am 07:53 Cloudy 6 -14.4 2 -16.7 83 83 ESE 6 9 30.27 1025 10 16 N/A
8:53 am 08:53 Cloudy with Light Snow 8 -13.3 2 -16.7 76 76 E 3 6 30.26 1025 5 8 N/A
9:53 am 09:53 Cloudy 9 -12.8 3 -16.1 77 77 SE 6 9 30.24 1024 10 16 N/A
10:53 am 10:53 Cloudy 11 -11.7 5 -15 77 77 SE 7 11 30.22 1023 10 16 N/A
11:53 am 11:53 Cloudy 12 -11.1 6 -14.4 77 77 SSE 5 7 30.20 1023 10 16 N/A
12:53 pm 12:53 Mostly Sunny 14 -10 7 -13.9 73 73 E 3 6 30.16 1022 10 16 N/A
1:53 pm 13:53 Sunny 17 -8.3 8 -13.3 68 68 N N/A 30.15 1021 10 16 N/A
2:53 pm 14:53 Mostly Sunny 17 -8.3 9 -12.8 70 70 N N/A 30.15 1021 10 16 N/A
3:53 pm 15:53 Sunny 20 -6.7 10 -12.2 65 65 W 5 7 30.12 1020 10 16 N/A
4:53 pm 16:53 Sunny 18 -7.8 10 -12.2 71 71 W 7 11 30.15 1021 10 16 N/A
5:53 pm 17:53 Clear 15 -9.4 9 -12.8 77 77 W 6 9 30.17 1022 10 16 N/A
6:53 pm 18:53 Clear 13 -10.6 8 -13.3 81 81 W 6 9 30.19 1022 10 16 N/A
7:53 pm 19:53 Clear 12 -11.1 7 -13.9 80 80 W 3 6 30.20 1023 10 16 N/A
8:53 pm 20:53 Clear 11 -11.7 7 -13.9 84 84 WNW 7 11 30.19 1022 10 16 N/A
9:53 pm 21:53 Clear 11 -11.7 7 -13.9 84 84 NW 7 11 30.19 1023 10 16 N/A
10:53 pm 22:53 Clear 11 -11.7 7 -13.9 84 84 NW 9 15 30.18 1022 10 16 N/A
11:53 pm 23:53 Clear 13 -10.6 8 -13.3 81 81 WNW 10 17 30.18 1022 10 16 N/A

Powered by AerisWeather